Location: Blackpool
(53.8200°N, 3.0410°W)
Time: 16:07:03
(UTC+00:00)

Amateur Radio Satellites - All Passes

Search period start: 15 December 2017 15:37
Search period end: 16 December 2017 15:37
Location: Blackpool, 53.8200°N, 3.0410°W

Satellite Date Start Highest point End Downlink Frequencies (MHz)
Time Altitude Azimuth
XW-2C 15 Dec 15:42:38 15:44:27 13° 55° (NE) 15:46:16 145.795 - 145.815
DOVE 4 15 Dec 15:43:05 15:48:14 61° 70° (ENE) 15:53:11 437.250
CUBESAT XI-V 15 Dec 15:46:27 15:50:34 29° 93° (E) 15:54:38 437.345
MOZHAYETS 4 15 Dec 15:58:12 16:02:51 76° 286° (WNW) 16:07:27
SO-50 15 Dec 16:06:14 16:10:38 59° 129° (SE) 16:15:07 436.795
nSIGHT-1 15 Dec 16:08:47 16:11:48 36° 200° (SSW) 16:14:48 .
UKube-1 15 Dec 16:09:46 16:12:57 20° 303° (WNW) 16:16:07 .
LilacSat-2 15 Dec 16:18:12 16:21:27 27° 64° (ENE) 16:24:45 437.200
CUTE-I 15 Dec 16:23:32 16:28:22 35° 60° (ENE) 16:33:12 437.470
BEESAT 15 Dec 16:25:14 16:29:59 68° 290° (WNW) 16:34:42 436.000
DX 1 15 Dec 16:28:18 16:29:48 12° 311° (NW) 16:31:18 434.975-435.025
CUTE 1.7 + AOD 2 15 Dec 16:30:15 16:32:29 14° 54° (NE) 16:34:43 437.475
XW-2D 15 Dec 16:31:17 16:34:44 34° 66° (ENE) 16:38:13 145.860 - 145.880
NUDT-PHONESAT 15 Dec 16:32:55 16:35:58 25° 63° (ENE) 16:39:04 437.300
ITAMSAT 1 15 Dec 16:34:21 16:37:42 17° 273° (W) 16:41:02 435.822/435.867
KAITUO 1B 15 Dec 16:37:45 16:41:02 29° 65° (ENE) 16:44:20 145.475/437.950
HO-68 15 Dec 16:43:10 16:49:38 38° 54° (NE) 16:56:05 435.675
XW-2B 15 Dec 16:46:57 16:50:35 45° 69° (ENE) 16:54:16 145.730 - 145.750
STARS 15 Dec 16:49:18 16:50:12 11° 84° (E) 16:51:05 437.465
O/OREOS (USA 219) 15 Dec 16:50:22 16:54:42 42° 51° (NE) 16:58:59 437.305
AO-7 15 Dec 16:52:05 16:57:13 17° 277° (W) 17:02:24 .
ISS 15 Dec 16:53:25 16:56:17 27° 206° (SSW) 16:59:08 437.550
ITUPSAT 1 15 Dec 16:54:16 16:58:45 42° 296° (WNW) 17:03:14 437.325
XW-2F 15 Dec 16:58:16 17:01:59 56° 70° (ENE) 17:05:44 145.980 - 146.000
XW-2C 15 Dec 17:14:13 17:18:01 87° 72° (ENE) 17:21:53 145.795 - 145.815
YUBILEINY 15 Dec 17:18:29 17:20:56 11° 298° (WNW) 17:23:23 435.215
DOVE 4 15 Dec 17:21:55 17:26:14 26° 269° (W) 17:30:27 437.250
CUBESAT XI-V 15 Dec 17:23:35 17:28:08 48° 293° (WNW) 17:32:39 437.345
UWE-3 15 Dec 17:23:40 17:26:11 16° 56° (NE) 17:28:43 435.000/436.395/437.385
CUBEBUG 2 15 Dec 17:24:38 17:28:00 24° 61° (ENE) 17:31:22 437.445
RS-15 15 Dec 17:36:27 17:48:40 61° 334° (NNW) 18:00:31 29.354- 29.394
MOZHAYETS 4 15 Dec 17:36:39 17:39:17 15° 308° (NW) 17:41:55
SEEDS 15 Dec 17:39:21 17:43:09 32° 64° (ENE) 17:46:58 437.485
KKS-1 15 Dec 17:42:19 17:46:45 67° 103° (ESE) 17:51:09 437.445
nSIGHT-1 15 Dec 17:46:04 17:47:21 12° 218° (SW) 17:48:39 .
ZACube-1 15 Dec 17:47:00 17:49:25 15° 55° (NE) 17:51:52 437.345
SO-50 15 Dec 17:47:07 17:51:20 37° 331° (NNW) 17:55:38 436.795
LilacSat-2 15 Dec 17:52:04 17:55:37 36° 263° (W) 17:59:14 437.200
AAUSAT CUBESAT 2 15 Dec 17:56:16 17:59:38 24° 61° (ENE) 18:03:02 437.432
CUTE-I 15 Dec 18:03:06 18:08:18 49° 260° (W) 18:13:31 437.470
CUTE 1.7 + AOD 2 15 Dec 18:03:22 18:07:38 79° 72° (ENE) 18:11:56 437.475
BEESAT 15 Dec 18:04:23 18:06:57 15° 310° (NW) 18:09:30 436.000
Oscar 11 15 Dec 18:05:10 18:07:41 15° 54° (NE) 18:10:14 .
XW-2D 15 Dec 18:05:37 18:08:56 28° 265° (W) 18:12:18 145.860 - 145.880
NUDT-PHONESAT 15 Dec 18:06:12 18:09:40 38° 263° (W) 18:13:11 437.300
STRAND 1 15 Dec 18:07:39 18:08:17 10° 81° (E) 18:08:56 437.568
KAITUO 1B 15 Dec 18:11:31 18:14:57 32° 264° (W) 18:18:25 145.475/437.950
PCSat 15 Dec 18:16:25 18:20:56 28° 112° (ESE) 18:25:29 145.827
AO-73 15 Dec 18:19:16 18:22:37 24° 61° (ENE) 18:26:01 145.935
XW-2B 15 Dec 18:22:03 18:24:59 21° 268° (W) 18:27:58 145.730 - 145.750
STARS 15 Dec 18:22:59 18:27:23 71° 105° (ESE) 18:31:43 437.465
XW-2A 15 Dec 18:27:57 18:31:06 38° 68° (ENE) 18:34:17 145.665 - 145.685
HO-68 15 Dec 18:29:53 18:37:02 66° 256° (WSW) 18:44:14 435.675
O/OREOS (USA 219) 15 Dec 18:29:58 18:34:03 34° 252° (WSW) 18:38:05 437.305
XW-2F 15 Dec 18:33:50 18:36:25 17° 270° (W) 18:39:01 145.980 - 146.000
XW-2C 15 Dec 18:51:26 18:52:47 12° 274° (W) 18:54:10 145.795 - 145.815
UWE-3 15 Dec 18:57:58 19:02:06 83° 254° (WSW) 19:06:18 435.000/436.395/437.385
CUBEBUG 2 15 Dec 19:00:22 19:04:25 48° 261° (W) 19:08:27 437.445
CUBESAT XI-V 15 Dec 19:03:29 19:04:27 11° 313° (NW) 19:05:25 437.345
FO-29 15 Dec 19:06:40 19:11:07 17° 79° (E) 19:15:15 435.910
SEEDS 15 Dec 19:14:53 19:18:47 36° 264° (W) 19:22:46 437.485
KKS-1 15 Dec 19:19:34 19:22:55 21° 303° (WNW) 19:26:14 437.445
ZACube-1 15 Dec 19:20:59 19:25:08 88° 264° (W) 19:29:21 437.345
SO-50 15 Dec 19:29:22 19:32:56 22° 355° (N) 19:36:32 436.795
AAUSAT CUBESAT 2 15 Dec 19:30:46 19:34:51 50° 261° (W) 19:38:57 437.432
Oscar 11 15 Dec 19:38:53 19:43:12 86° 73° (ENE) 19:47:35 .
CUTE 1.7 + AOD 2 15 Dec 19:41:28 19:44:00 15° 273° (W) 19:46:34 437.475
STRAND 1 15 Dec 19:43:32 19:48:36 59° 101° (ESE) 19:53:37 437.568
RS-15 15 Dec 19:51:49 20:03:40 51° 7° (N) 20:15:00 29.354- 29.394
AO-73 15 Dec 19:54:38 19:58:39 48° 261° (W) 20:02:42 145.935
PCSat 15 Dec 19:58:31 20:03:57 71° 314° (NW) 20:09:24 145.827
STARS 15 Dec 20:00:07 20:03:17 20° 304° (WNW) 20:06:25 437.465
XW-2A 15 Dec 20:01:26 20:03:57 19° 268° (W) 20:06:30 145.665 - 145.685
BEESAT 3 15 Dec 20:08:57 20:12:30 32° 122° (ESE) 20:16:06 437.485
HO-68 15 Dec 20:22:01 20:26:13 16° 278° (W) 20:30:27 435.675
Max Valier Satellite 15 Dec 20:22:50 20:26:14 38° 68° (ENE) 20:29:41 145.860
DELFI C3 15 Dec 20:23:53 20:27:48 57° 71° (ENE) 20:31:44 145.870
UWE-3 15 Dec 20:37:55 20:39:18 11° 275° (W) 20:40:41 435.000/436.395/437.385
EO-88 15 Dec 20:48:27 20:52:00 51° 71° (ENE) 20:55:35 145.990 - 145.960
FO-29 15 Dec 20:50:26 20:57:39 73° 103° (ESE) 21:03:58 435.910
BEESAT 2 15 Dec 20:51:20 20:54:45 27° 120° (ESE) 20:58:12 435.950
ZACube-1 15 Dec 21:00:25 21:02:07 12° 275° (W) 21:03:49 437.345
SO-50 15 Dec 21:10:45 21:14:42 27° 19° (NNE) 21:18:42 436.795
LO-87 15 Dec 21:17:08 21:19:37 18° 61° (ENE) 21:22:07 145.935 - 145.965
Oscar 11 15 Dec 21:17:38 21:19:58 14° 274° (W) 21:22:20 .
AO-85 15 Dec 21:20:49 21:23:16 16° 113° (ESE) 21:25:47 145.980
STRAND 1 15 Dec 21:23:12 21:27:30 28° 302° (WNW) 21:31:48 437.568
PCSat 15 Dec 21:43:38 21:48:14 27° 337° (NNW) 21:52:51 145.827
BEESAT 3 15 Dec 21:46:02 21:49:56 49° 323° (NW) 21:53:50 437.485
VELOX 1 15 Dec 21:51:44 21:52:09 10° 47° (NE) 21:52:33 145.980
ESTCUBE 1 15 Dec 21:54:29 21:58:42 39° 65° (ENE) 22:02:57 437.505/2401.250
Max Valier Satellite 15 Dec 21:57:14 22:00:12 23° 267° (W) 22:03:12 145.860
DELFI C3 15 Dec 22:00:03 22:02:53 18° 270° (W) 22:05:44 145.870
TIGRISAT 15 Dec 22:03:00 22:07:16 56° 101° (E) 22:11:36 435.000
RS-15 15 Dec 22:05:56 22:18:05 76° 38° (NE) 22:29:33 29.354- 29.394
UNISAT 6 15 Dec 22:06:33 22:10:53 65° 103° (ESE) 22:15:15 437.425
SPROUT 15 Dec 22:21:18 22:24:32 22° 59° (ENE) 22:27:46 437.525
EO-88 15 Dec 22:23:23 22:25:55 18° 269° (W) 22:28:28 145.990 - 145.960
PRISM 15 Dec 22:27:15 22:31:02 33° 97° (E) 22:34:45 437.425
BEESAT 2 15 Dec 22:28:15 22:32:14 57° 320° (NW) 22:36:17 435.950
FO-29 15 Dec 22:35:53 22:42:09 33° 307° (NW) 22:47:47 435.910
LO-87 15 Dec 22:49:17 22:52:43 50° 260° (W) 22:56:11 145.935 - 145.965
SO-50 15 Dec 22:51:12 22:55:51 73° 42° (NE) 23:00:33 436.795
POLYITAN 1 15 Dec 22:56:35 22:58:09 12° 85° (E) 22:59:42 437.675
AO-85 15 Dec 22:58:58 23:02:59 89° 330° (NNW) 23:07:19 145.980
AIST 2D 15 Dec 23:11:06 23:14:28 38° 98° (E) 23:17:49 435.315
QB50P2 15 Dec 23:21:04 23:24:21 21° 91° (E) 23:27:38 145.880/145.840
VELOX 1 15 Dec 23:23:19 23:27:36 48° 67° (ENE) 23:31:54 145.980
DUCHIFAT 1 15 Dec 23:24:49 23:27:35 17° 89° (E) 23:30:21 145.980
BEESAT 3 15 Dec 23:25:18 23:28:17 20° 345° (NNW) 23:31:17 437.485
PCSat 15 Dec 23:29:22 23:33:22 20° 3° (N) 23:37:23 145.827
ESTCUBE 1 15 Dec 23:31:29 23:35:34 33° 265° (W) 23:39:42 437.505/2401.250
TIGRISAT 15 Dec 23:40:16 23:43:41 23° 300° (WNW) 23:47:08 435.000
50 SAT 15 Dec 23:40:52 23:42:42 15° 60° (ENE) 23:44:33 437.505
UNISAT 6 15 Dec 23:44:01 23:47:13 21° 302° (WNW) 23:50:28 437.425
NANOSAT C BR1 15 Dec 23:51:12 23:55:01 32° 96° (E) 23:58:48 145.865
SPROUT 15 Dec 23:55:53 00:00:05 60° 259° (W) 00:04:18 437.525
UKube-1 15 Dec 23:58:46 00:02:03 21° 58° (ENE) 00:05:20 .
PRISM 16 Dec 00:02:34 00:06:17 33° 296° (WNW) 00:09:57 437.425
BUGSAT 1 16 Dec 00:02:41 00:03:29 10° 85° (E) 00:04:16 437.445
EO-79 16 Dec 00:07:07 00:11:14 50° 100° (E) 00:15:20 145.935-145.965
BEESAT 2 16 Dec 00:07:33 00:10:43 21° 343° (NNW) 00:13:54 435.950
DX 1 16 Dec 00:15:46 00:19:52 41° 65° (ENE) 00:24:00 434.975-435.025
RS-15 16 Dec 00:18:57 00:30:01 48° 246° (WSW) 00:40:32 29.354- 29.394
FO-29 16 Dec 00:22:36 00:25:00 12° 331° (NNW) 00:27:20 435.910
BEESAT 16 Dec 00:26:53 00:28:10 11° 46° (NE) 00:29:29 436.000
POLYITAN 1 16 Dec 00:30:23 00:34:38 82° 104° (ESE) 00:38:52 437.675
SO-50 16 Dec 00:32:11 00:35:57 25° 242° (WSW) 00:39:46 436.795
AO-85 16 Dec 00:40:22 00:43:56 27° 338° (NNW) 00:47:46 145.980
YUBILEINY 16 Dec 00:40:57 00:44:07 12° 63° (ENE) 00:47:17 435.215
AIST 2D 16 Dec 00:44:37 00:47:27 23° 297° (WNW) 00:50:17 435.315
AO-91 16 Dec 00:45:26 00:46:55 12° 87° (E) 00:48:21 145.960
ITUPSAT 1 16 Dec 00:53:56 00:56:55 17° 52° (NE) 00:59:52 437.325
Gurwin Techsat 1B 16 Dec 00:55:55 00:59:41 19° 88° (E) 01:03:26 435.225
QB50P2 16 Dec 00:56:19 01:00:27 53° 291° (WNW) 01:04:34 145.880/145.840
DUCHIFAT 1 16 Dec 00:59:31 01:03:42 68° 288° (WNW) 01:07:52 145.980
VELOX 1 16 Dec 01:00:32 01:04:16 26° 267° (W) 01:08:01 145.980
BEESAT 3 16 Dec 01:04:19 01:07:07 18° 9° (N) 01:09:54 437.485
50 SAT 16 Dec 01:11:10 01:14:17 54° 258° (WSW) 01:17:26 437.505
PCSat 16 Dec 01:13:32 01:18:24 32° 28° (NNE) 01:23:14 145.827
CUBESAT XI-V 16 Dec 01:21:56 01:23:45 12° 49° (NE) 01:25:35 437.345
NANOSAT C BR1 16 Dec 01:26:54 01:30:45 35° 295° (WNW) 01:34:35 145.865
MOZHAYETS 4 16 Dec 01:29:40 01:33:47 35° 64° (ENE) 01:37:57
UKube-1 16 Dec 01:33:24 01:37:42 63° 258° (WSW) 01:42:02 .
BUGSAT 1 16 Dec 01:35:29 01:39:33 78° 104° (ESE) 01:43:37 437.445
EO-79 16 Dec 01:43:20 01:46:45 24° 299° (WNW) 01:50:10 145.935-145.965
Oscar 19 16 Dec 01:43:42 01:48:50 54° 100° (E) 01:53:56 437.125/150
BEESAT 2 16 Dec 01:46:54 01:49:44 18° 7° (N) 01:52:34 435.950
DX 1 16 Dec 01:52:18 01:56:10 30° 265° (W) 02:00:03 434.975-435.025
BEESAT 16 Dec 02:00:20 02:04:55 49° 66° (ENE) 02:09:30 436.000
POLYITAN 1 16 Dec 02:07:11 02:09:53 17° 304° (NW) 02:12:36 437.675
AO-91 16 Dec 02:20:24 02:23:58 65° 288° (WNW) 02:27:19 145.960
AO-85 16 Dec 02:22:23 02:25:39 20° 3° (N) 02:29:06 145.980
ITUPSAT 1 16 Dec 02:29:17 02:34:03 81° 72° (ENE) 02:38:50 437.325
YUBILEINY 16 Dec 02:30:16 02:38:36 49° 88° (E) 02:46:58 435.215
QB50P2 16 Dec 02:34:52 02:35:21 10° 311° (NW) 02:35:49 145.880/145.840
Gurwin Techsat 1B 16 Dec 02:34:57 02:40:19 84° 288° (WNW) 02:45:39 435.225
RS-15 16 Dec 02:35:08 02:38:59 12° 272° (W) 02:42:47 29.354- 29.394
DUCHIFAT 1 16 Dec 02:36:54 02:38:37 12° 308° (NW) 02:40:19 145.980
BEESAT 3 16 Dec 02:41:56 02:45:39 36° 32° (NNE) 02:49:18 437.485
AO-7 16 Dec 02:48:40 02:55:52 31° 92° (E) 03:03:01 .
CUBESAT XI-V 16 Dec 02:55:36 03:00:11 56° 69° (ENE) 03:04:48 437.345
PCSat 16 Dec 02:56:56 03:02:25 86° 230° (SW) 03:07:51 145.827
ITAMSAT 1 16 Dec 02:59:07 03:02:53 20° 89° (E) 03:06:38 435.822/435.867
MOZHAYETS 4 16 Dec 03:06:41 03:10:55 38° 263° (W) 03:15:13
KKS-1 16 Dec 03:11:07 03:14:37 23° 58° (ENE) 03:18:08 437.445
BUGSAT 1 16 Dec 03:11:53 03:14:25 16° 304° (NW) 03:16:57 437.445
Oscar 19 16 Dec 03:23:25 03:27:57 31° 301° (WNW) 03:32:28 437.125/150
BEESAT 2 16 Dec 03:24:49 03:28:32 33° 30° (NNE) 03:32:13 435.950
BEESAT 16 Dec 03:38:48 03:42:54 28° 266° (W) 03:47:02 436.000
STARS 16 Dec 03:50:28 03:53:56 23° 58° (ENE) 03:57:24 437.465
AO-85 16 Dec 04:03:12 04:07:16 32° 27° (NNE) 04:11:38 145.980
M-CUBED/EXP-1 PRIME 16 Dec 04:03:40 04:08:12 55° 107° (ESE) 04:12:28 437.505
ITUPSAT 1 16 Dec 04:09:19 04:12:29 17° 272° (W) 04:15:38 437.325
Gurwin Techsat 1B 16 Dec 04:15:52 04:19:35 20° 309° (NW) 04:23:17 435.225
BEESAT 3 16 Dec 04:19:28 04:23:19 48° 233° (SW) 04:27:04 437.485
YUBILEINY 16 Dec 04:26:50 04:35:25 53° 292° (WNW) 04:44:05 435.215
CUBESAT XI-V 16 Dec 04:34:05 04:37:53 24° 269° (W) 04:41:43 437.345
ITAMSAT 1 16 Dec 04:37:46 04:42:58 79° 289° (WNW) 04:48:09 435.822/435.867
AO-7 16 Dec 04:41:07 04:49:33 82° 295° (WNW) 04:57:56 .
PCSat 16 Dec 04:41:19 04:45:06 20° 252° (WSW) 04:48:53 145.827
KKS-1 16 Dec 04:46:26 04:50:51 61° 258° (WSW) 04:55:17 437.445
BEESAT 2 16 Dec 05:02:30 05:06:30 58° 231° (SW) 05:10:26 435.950
DOVE 4 16 Dec 05:13:10 05:17:45 63° 101° (E) 05:22:03 437.250
LilacSat-2 16 Dec 05:19:04 05:21:39 17° 89° (E) 05:24:12 437.200
FO-29 16 Dec 05:25:05 05:30:57 24° 46° (NE) 05:36:41 435.910
STARS 16 Dec 05:25:37 05:29:57 58° 258° (WSW) 05:34:19 437.465
STRAND 1 16 Dec 05:27:45 05:32:11 31° 59° (ENE) 05:36:37 437.568
NUDT-PHONESAT 16 Dec 05:30:23 05:32:26 14° 88° (E) 05:34:28 437.300
XW-2D 16 Dec 05:31:16 05:34:14 21° 91° (E) 05:37:10 145.860 - 145.880
KAITUO 1B 16 Dec 05:36:13 05:38:46 17° 90° (E) 05:41:18 145.475/437.950
M-CUBED/EXP-1 PRIME 16 Dec 05:38:23 05:42:17 28° 307° (NW) 05:46:02 437.505
AO-85 16 Dec 05:43:28 05:48:07 80° 228° (SW) 05:53:07 145.980
XW-2B 16 Dec 05:46:56 05:50:18 28° 94° (E) 05:53:38 145.730 - 145.750
HO-68 16 Dec 05:51:12 05:56:04 19° 84° (E) 06:00:54 435.675
XW-2F 16 Dec 05:57:41 06:01:12 33° 96° (E) 06:04:41 145.980 - 146.000
CUTE-I 16 Dec 06:13:09 06:18:12 41° 97° (E) 06:23:13 437.470
XW-2C 16 Dec 06:14:11 06:17:59 52° 101° (E) 06:21:44 145.795 - 145.815
ITAMSAT 1 16 Dec 06:18:17 06:21:42 18° 310° (NW) 06:25:08 435.822/435.867
YUBILEINY 16 Dec 06:29:08 06:34:49 18° 320° (NW) 06:40:31 435.215
AO-7 16 Dec 06:34:25 06:41:22 30° 318° (NW) 06:48:17 .
UWE-3 16 Dec 06:41:52 06:43:59 13° 86° (E) 06:46:06 435.000/436.395/437.385
CUBEBUG 2 16 Dec 06:44:19 06:47:38 22° 91° (E) 06:51:00 437.445
DOVE 4 16 Dec 06:51:30 06:55:02 22° 303° (WNW) 06:58:25 437.250
SEEDS 16 Dec 06:51:49 06:55:24 25° 93° (E) 06:58:56 437.485
LilacSat-2 16 Dec 06:52:26 06:56:17 61° 289° (WNW) 07:00:08 437.200
NO-84 16 Dec 07:01:26 07:04:07 27° 144° (SE) 07:07:00 435.350 FM
NUDT-PHONESAT 16 Dec 07:02:58 07:06:44 70° 286° (WNW) 07:10:27 437.300
ZACube-1 16 Dec 07:03:54 07:05:45 12° 85° (E) 07:07:37 437.345
XW-2D 16 Dec 07:04:54 07:08:39 47° 290° (WNW) 07:12:20 145.860 - 145.880
STRAND 1 16 Dec 07:06:09 07:11:10 53° 259° (W) 07:16:11 437.568
AAUSAT CUBESAT 2 16 Dec 07:06:47 07:09:37 17° 89° (E) 07:12:24 437.432
FO-29 16 Dec 07:07:03 07:14:50 69° 68° (ENE) 07:22:30 435.910
KAITUO 1B 16 Dec 07:09:19 07:13:05 57° 289° (WNW) 07:16:49 145.475/437.950
O/OREOS (USA 219) 16 Dec 07:11:57 07:13:51 12° 98° (E) 07:15:46 437.305
XW-2A 16 Dec 07:15:53 07:18:15 17° 91° (E) 07:20:37 145.665 - 145.685
CUTE 1.7 + AOD 2 16 Dec 07:17:14 07:21:32 65° 102° (ESE) 07:25:48 437.475
XW-2B 16 Dec 07:20:59 07:24:32 35° 293° (WNW) 07:28:03 145.730 - 145.750
Oscar 11 16 Dec 07:21:37 07:22:51 11° 83° (E) 07:24:05 .
AO-85 16 Dec 07:24:52 07:28:00 18° 246° (WSW) 07:31:15 145.980
XW-2F 16 Dec 07:31:53 07:35:16 29° 295° (WNW) 07:38:36 145.980 - 146.000
TIGRISAT 16 Dec 07:33:05 07:35:54 17° 56° (NE) 07:38:44 435.000
AO-73 16 Dec 07:35:49 07:39:10 21° 91° (E) 07:42:34 145.935
UNISAT 6 16 Dec 07:36:26 07:39:32 20° 58° (ENE) 07:42:38 437.425
HO-68 16 Dec 07:37:50 07:45:04 76° 106° (ESE) 07:52:13 435.675
XW-2C 16 Dec 07:48:57 07:51:52 21° 299° (WNW) 07:54:45 145.795 - 145.815
PRISM 16 Dec 07:50:42 07:51:43 11° 50° (NE) 07:52:44 437.425
CUTE-I 16 Dec 07:53:18 07:58:17 40° 298° (WNW) 08:03:13 437.470
UWE-3 16 Dec 08:16:45 08:21:05 89° 119° (ESE) 08:25:29 435.000/436.395/437.385
CUBEBUG 2 16 Dec 08:20:25 08:24:34 53° 290° (WNW) 08:28:47 437.445
SEEDS 16 Dec 08:27:11 08:31:16 45° 292° (WNW) 08:35:19 437.485
AO-7 16 Dec 08:27:25 08:31:36 15° 344° (NNW) 08:35:47 .
LilacSat-2 16 Dec 08:29:32 08:29:47 10° 308° (NW) 08:30:01 437.200
NO-84 16 Dec 08:37:50 08:41:04 90° 167° (SSE) 08:44:35 435.350 FM
ZACube-1 16 Dec 08:38:22 08:42:43 82° 106° (ESE) 08:47:09 437.345
NUDT-PHONESAT 16 Dec 08:38:58 08:39:51 11° 307° (NW) 08:40:44 437.300
AAUSAT CUBESAT 2 16 Dec 08:41:20 08:45:30 66° 288° (WNW) 08:49:36 437.432
XW-2A 16 Dec 08:47:52 08:51:11 45° 290° (WNW) 08:54:29 145.665 - 145.685
O/OREOS (USA 219) 16 Dec 08:47:54 08:52:28 76° 117° (ESE) 08:57:03 437.305
FO-29 16 Dec 08:53:11 09:00:18 37° 269° (W) 09:07:24 435.910
CUTE 1.7 + AOD 2 16 Dec 08:53:47 08:56:59 21° 301° (WNW) 09:00:09 437.475
Oscar 11 16 Dec 08:55:24 08:59:47 74° 103° (ESE) 09:04:09 .
TIGRISAT 16 Dec 09:07:51 09:12:06 78° 255° (WSW) 09:16:24 435.000
AO-73 16 Dec 09:11:29 09:15:44 57° 290° (WNW) 09:20:04 145.935
UNISAT 6 16 Dec 09:11:36 09:15:51 66° 257° (WSW) 09:20:08 437.425
NANOSAT C BR1 16 Dec 09:17:43 09:18:15 10° 49° (NE) 09:18:47 145.865
Max Valier Satellite 16 Dec 09:19:51 09:22:50 22° 93° (E) 09:25:48 145.860
PRISM 16 Dec 09:22:03 09:26:08 58° 70° (ENE) 09:30:15 437.425
HO-68 16 Dec 09:26:04 09:32:18 33° 309° (NW) 09:38:30 435.675
DELFI C3 16 Dec 09:28:42 09:32:25 37° 97° (E) 09:36:06 145.870
EO-79 16 Dec 09:32:03 09:34:22 15° 54° (NE) 09:36:42 145.935-145.965
CUTE-I 16 Dec 09:35:56 09:37:01 11° 319° (NW) 09:38:06 437.470
EO-88 16 Dec 09:44:03 09:47:15 27° 95° (E) 09:50:25 145.990 - 145.960
AIST 2D 16 Dec 09:51:01 09:54:18 38° 69° (ENE) 09:57:38 435.315
UWE-3 16 Dec 09:54:22 09:56:59 16° 304° (NW) 09:59:38 435.000/436.395/437.385
POLYITAN 1 16 Dec 09:54:24 09:57:35 21° 59° (ENE) 10:00:47 437.675
CUBEBUG 2 16 Dec 10:00:14 10:00:19 10° 310° (NW) 10:00:24 437.445
NO-84 16 Dec 10:15:02 10:18:26 74° 6° (N) 10:22:08 435.350 FM
ZACube-1 16 Dec 10:15:39 10:18:30 17° 303° (WNW) 10:21:22 437.345
AO-7 16 Dec 10:17:16 10:21:06 14° 12° (NNE) 10:24:56 .
AAUSAT CUBESAT 2 16 Dec 10:18:38 10:20:09 12° 308° (NW) 10:21:40 437.432
QB50P2 16 Dec 10:19:24 10:23:15 36° 65° (ENE) 10:27:08 145.880/145.840
DUCHIFAT 1 16 Dec 10:22:13 10:25:49 29° 63° (ENE) 10:29:25 145.980
O/OREOS (USA 219) 16 Dec 10:28:41 10:32:24 24° 319° (NW) 10:36:07 437.305
Oscar 11 16 Dec 10:32:23 10:35:28 19° 303° (WNW) 10:38:32 .
YUBILEINY 16 Dec 10:35:33 10:39:23 13° 30° (NNE) 10:43:11 435.215
Gurwin Techsat 1B 16 Dec 10:46:40 10:49:17 14° 45° (NE) 10:51:54 435.225
TIGRISAT 16 Dec 10:48:21 10:49:35 11° 276° (W) 10:50:48 435.000
NANOSAT C BR1 16 Dec 10:49:00 10:53:05 55° 69° (ENE) 10:57:10 145.865
AO-73 16 Dec 10:49:55 10:51:07 11° 309° (NW) 10:52:21 145.935
Max Valier Satellite 16 Dec 10:53:17 10:56:49 41° 291° (WNW) 11:00:21 145.860
BUGSAT 1 16 Dec 10:57:15 11:00:07 19° 58° (ENE) 11:02:59 437.445
PRISM 16 Dec 10:58:41 11:01:45 20° 269° (W) 11:04:50 437.425
DELFI C3 16 Dec 11:03:40 11:07:03 28° 297° (WNW) 11:10:25 145.870
EO-79 16 Dec 11:05:19 11:09:31 85° 76° (ENE) 11:13:44 145.935-145.965
ISS 16 Dec 11:14:23 11:15:50 12° 142° (SE) 11:17:18 437.550
HO-68 16 Dec 11:15:14 11:18:01 13° 333° (NNW) 11:20:48 435.675
ESTCUBE 1 16 Dec 11:16:42 11:20:52 34° 96° (E) 11:25:00 437.505/2401.250
EO-88 16 Dec 11:17:35 11:20:56 33° 293° (WNW) 11:24:14 145.990 - 145.960
AIST 2D 16 Dec 11:24:51 11:27:37 21° 267° (W) 11:30:25 435.315
Oscar 19 16 Dec 11:28:53 11:33:17 29° 58° (ENE) 11:37:43 437.125/150
POLYITAN 1 16 Dec 11:28:55 11:33:02 58° 258° (WSW) 11:37:12 437.675
SPROUT 16 Dec 11:35:43 11:38:15 15° 88° (E) 11:40:47 437.525
LO-87 16 Dec 11:42:31 11:46:05 79° 104° (ESE) 11:49:37 145.935 - 145.965
AO-91 16 Dec 11:47:02 11:51:06 31° 65° (ENE) 11:54:47 145.960
NO-84 16 Dec 11:52:12 11:55:41 55° 206° (SSW) 11:59:27 435.350 FM
QB50P2 16 Dec 11:55:21 11:59:06 31° 265° (W) 12:02:52 145.880/145.840
DUCHIFAT 1 16 Dec 11:57:27 12:01:22 39° 262° (W) 12:05:19 145.980
nSIGHT-1 16 Dec 12:01:00 12:03:45 26° 154° (SSE) 12:06:30 .
AO-7 16 Dec 12:04:37 12:11:09 27° 38° (NE) 12:17:44 .
Gurwin Techsat 1B 16 Dec 12:23:01 12:28:12 55° 67° (ENE) 12:33:24 435.225
NANOSAT C BR1 16 Dec 12:25:56 12:29:06 21° 269° (W) 12:32:17 145.865
BUGSAT 1 16 Dec 12:31:07 12:35:06 63° 257° (WSW) 12:39:07 437.445
YUBILEINY 16 Dec 12:31:37 12:39:41 37° 60° (ENE) 12:47:39 435.215
RS-15 16 Dec 12:41:57 12:49:41 20° 95° (E) 12:57:20 29.354- 29.394
VELOX 1 16 Dec 12:42:52 12:47:01 38° 97° (E) 12:51:07 145.980
EO-79 16 Dec 12:43:45 12:45:53 14° 273° (W) 12:48:01 145.935-145.965
ITAMSAT 1 16 Dec 12:47:01 12:49:39 14° 46° (NE) 12:52:17 435.822/435.867
ISS 16 Dec 12:48:35 12:51:40 37° 160° (SSE) 12:54:46 437.550
ESTCUBE 1 16 Dec 12:53:30 12:57:44 38° 295° (WNW) 13:01:55 437.505/2401.250
Oscar 19 16 Dec 13:07:17 13:12:21 57° 259° (W) 13:17:29 437.125/150
SPROUT 16 Dec 13:10:25 13:14:41 77° 287° (WNW) 13:18:55 437.525
UKube-1 16 Dec 13:14:59 13:17:15 14° 87° (E) 13:19:29 .
LO-87 16 Dec 13:17:14 13:18:59 13° 303° (WNW) 13:20:44 145.935 - 145.965
M-CUBED/EXP-1 PRIME 16 Dec 13:20:47 13:24:48 32° 55° (NE) 13:28:57 437.505
AO-91 16 Dec 13:23:06 13:27:30 40° 262° (W) 13:31:31 145.960
NO-84 16 Dec 13:30:07 13:32:27 16° 224° (SW) 13:34:52 435.350 FM
DX 1 16 Dec 13:33:17 13:37:08 29° 95° (E) 13:40:56 434.975-435.025
nSIGHT-1 16 Dec 13:36:26 13:39:36 55° 173° (S) 13:42:47 .
50 SAT 16 Dec 13:52:38 13:55:40 42° 100° (E) 13:58:41 437.505
AO-7 16 Dec 13:54:29 14:02:43 71° 63° (ENE) 14:11:03 .
Gurwin Techsat 1B 16 Dec 14:03:50 14:08:27 30° 267° (W) 14:13:06 435.225
VELOX 1 16 Dec 14:19:26 14:23:25 33° 297° (WNW) 14:27:21 145.980
ITAMSAT 1 16 Dec 14:23:02 14:28:08 57° 67° (ENE) 14:33:15 435.822/435.867
ISS 16 Dec 14:24:39 14:27:55 60° 180° (S) 14:31:10 437.550
ITUPSAT 1 16 Dec 14:24:40 14:26:51 13° 85° (E) 14:29:01 437.325
YUBILEINY 16 Dec 14:28:30 14:37:19 73° 264° (W) 14:46:01 435.215
HO-68 16 Dec 14:44:43 14:47:15 12° 26° (NNE) 14:49:47 435.675
RS-15 16 Dec 14:47:35 14:59:35 62° 120° (ESE) 15:11:22 29.354- 29.394
DOVE 4 16 Dec 14:47:40 14:51:49 25° 59° (ENE) 14:55:52 437.250
SPROUT 16 Dec 14:47:44 14:49:53 14° 307° (NW) 14:52:02 437.525
UKube-1 16 Dec 14:49:32 14:53:54 88° 282° (WNW) 14:58:12 .
SO-50 16 Dec 14:52:21 14:55:50 22° 117° (ESE) 14:59:21 436.795
MOZHAYETS 4 16 Dec 14:54:34 14:58:45 32° 95° (E) 15:02:53
M-CUBED/EXP-1 PRIME 16 Dec 14:54:42 14:59:00 47° 255° (WSW) 15:03:31 437.505
DX 1 16 Dec 15:09:20 15:13:26 41° 295° (WNW) 15:17:30 434.975-435.025
nSIGHT-1 16 Dec 15:12:29 15:15:37 47° 193° (SSW) 15:18:44 .
50 SAT 16 Dec 15:25:12 15:27:21 17° 299° (WNW) 15:29:29 437.505
XW-2C 16 Dec 15:30:53 15:31:29 10° 52° (NE) 15:32:05 145.795 - 145.815
